Tracking 28790 objects as of 19-Apr-2024
HD Live streaming from Space Station
objects crossing your sky now

SL-16 DEB

Track SL-16 DEB now!
10-day predictions


NORAD ID: 22343
Int'l Code: 1992-093AG
Perigee: 797.1 km
Apogee: 936.3 km
Inclination: 71.0 °
Period: 102.1 minutes
Semi major axis: 7237 km
RCS: 0.2302 m2 (medium)
Launch date: December 25, 1992
Source: Commonwealth of Independent States (former USSR) (CIS)
Launch site: TYURATAM MISSILE AND SPACE COMPLEX (TTMTR)

Note: This is SATELLITE DEBRIS
Your satellite tracking list
Your tracking list is empty




NASA's NSSDC Master Catalog

Two Line Element Set (TLE):
1 22343U 92093AG  24110.05688934  .00001254  00000-0  70716-3 0  9994
2 22343  70.9584 327.3675 0096143 290.5828 221.9775 14.09954693605104
Source of the keplerian elements: AFSPC